Regional Weather Roundup
Issued by NWS San Angelo, TX

Home | Current Version | Previous Version | Text Only | Print | Product List | Glossary On
Versions: 1 2 3 4 5 6 7 8 9 10 11 12 13 14 15 16 17 18 19 20 21 22 23 24 25 26 27 28 29 30 31 32 33 34 35 36 37 38 39 40 41 42 43 44 45 46 47 48 49 50
000
ASUS44 KSJT 251902
RWRSJT
WEST CENTRAL TEXAS REGIONAL WEATHER ROUNDUP
NATIONAL WEATHER SERVICE SAN ANGELO TX
200 PM CDT WED MAY 25 2016

NOTE: "FAIR" INDICATES FEW OR NO CLOUDS BELOW 12,000 FEET WITH NO
SIGNIFICANT WEATHER AND/OR OBSTRUCTIONS TO VISIBILITY.

TXZ049-054-064>066-071>073-076>078-098-099-113-114-127-128-139-140-
154-155-168>170-252000
...LOCATIONS ACROSS WEST CENTRAL TEXAS...

CITY           SKY/WX    TMP DP  RH WIND       PRES   REMARKS
SAN ANGELO     MOSUNNY   91  72  53 S15       29.97F
ABILENE        PTSUNNY   89  70  53 S14       29.95F
DYESS AFB      CLOUDY    91  63  39 SW8       29.93F
JUNCTION       CLOUDY    80  73  79 SW6       30.02F
SWEETWATER     NOT AVBL
BROWNWOOD      PTSUNNY   82  73  74 S15G23    29.99F
COLEMAN        MOCLDY    89  70  53 S9G20     29.98S
SONORA         NOT AVBL
OZONA          NOT AVBL
BRADY          NOT AVBL
$$

TEXAS PANHANDLE/OKLAHOMA PANHANDLE

CITY           SKY/WX    TMP DP  RH WIND       PRES   REMARKS
AMARILLO       SUNNY     87  33  14 MISG      29.97F
BORGER         SUNNY     89  24   9 W7        29.94F
CANADIAN       SUNNY     87  52  30 SE3       29.90F
DALHART        SUNNY     84  30  14 S23G29    29.97F
DUMAS          CLEAR     85  30  13 SW18G26   29.97F
GUYMON         NOT AVBL
HEREFORD       CLEAR     90  27  10 SW18      30.00F
PAMPA          NOT AVBL
PERRYTON       NOT AVBL
$$

SOUTHERN PANHANDLE/SOUTH PLAINS/ROLLING PLAINS

CITY           SKY/WX    TMP DP  RH WIND       PRES   REMARKS
LUBBOCK        SUNNY     90  32  12 W6        29.98F
SNYDER           N/A     90  51  26 SW8       29.97F
CHILDRESS      SUNNY     92  63  38 S9        29.89F
SEMINOLE       NOT AVBL
$$

PERMIAN BASIN

CITY           SKY/WX    TMP DP  RH WIND       PRES   REMARKS
MIDLAND        SUNNY     97  24   7 W15G24    29.99F
ODESSA         SUNNY     96  24   7 SW16G23   30.00F
WINK           SUNNY     94  28   9 MISG      29.97F
$$

FAR WEST/SOUTHWEST MOUNTAINS/TRANS PECOS

CITY           SKY/WX    TMP DP  RH WIND       PRES   REMARKS
ALPINE         NOT AVBL
DRYDEN           N/A     89  70  53 VRB5      29.98F
EL PASO        MOSUNNY   86  28  12 SW16G35   30.06F
FORT STOCKTON  SUNNY     95  31  10 VRB7      30.00F
GUADALUPE PASS NOT AVBL
MARFA          SUNNY     90  36  14 SW26G35   30.12F
PECOS          NOT AVBL
$$

DALLAS/FORT WORTH METROPLEX

CITY           SKY/WX    TMP DP  RH WIND       PRES   REMARKS
DFW AIRPORT    PTSUNNY   86  73  65 S15       29.95F
FTW MEACHAM    CLOUDY    86  73  65 S17       29.95F
DAL-EXECUTIVE  CLOUDY    83  72  69 S10G20    29.97F
GRAND PRAIRIE  PTSUNNY   84  72  65 S12G18    29.98F
ADDISON        CLOUDY    84  73  70 S7G15     29.98S
MESQUITE       CLOUDY    82  73  74 S12       29.98S
LANCASTER      CLOUDY    84  71  65 S15G22    29.98S
$$

NORTH CENTRAL TEXAS

CITY           SKY/WX    TMP DP  RH WIND       PRES   REMARKS
SHRMAN/DENISON NOT AVBL
GAINESVILLE    NOT AVBL
BRIDGEPORT     NOT AVBL
DENTON         LGT RAIN  86  73  65 S18G24    29.96F
WAXAHACHIE     CLOUDY    84  74  72 S14       29.98F
GRANBURY       CLOUDY    84  74  70 S14G20    29.98F
$$

WESTERN NORTH TEXAS

CITY           SKY/WX    TMP DP  RH WIND       PRES   REMARKS
WICHITA FALLS  MOSUNNY   90  73  57 S21G28    29.89F
VERNON         CLEAR     93  65  39 S15G22    29.88F
BRECKENRIDGE   NOT AVBL
COMANCHE       CLOUDY    80  74  83 S16G22    30.00F
$$

CENTRAL AND SOUTH CENTRAL TEXAS

CITY           SKY/WX    TMP DP  RH WIND       PRES   REMARKS
AUSTIN/BERGSTM CLOUDY    84  75  74 S9        30.01R
WACO           CLOUDY    85  73  67 S15G24    29.98R
HILLSBORO      CLOUDY    83  73  70 S15G22    29.99R
TEMPLE         CLOUDY    83  75  77 S15       30.00S
KILLEEN-GRAY   CLOUDY    81  74  79 S14       30.00S
FORT HOOD      CLOUDY    80  74  81 S12       29.98R
GEORGETOWN     CLOUDY    82  73  74 SE13G21   29.97F
LAGO VISTA     MOCLDY    82  74  77 SE10G16   30.02F
SAN MARCOS     CLOUDY    84  75  74 S13       30.02R FOG
NEW BRAUNFELS  CLOUDY    85  75  72 S8        29.99F
RANDOLPH AFB   NOT AVBL
SAN ANTONIO    CLOUDY    84  75  74 SE14      29.99F
STINSON        PTSUNNY   88  75  65 SE9       29.97S
PLEASANTON     NOT AVBL
LA GRANGE      NOT AVBL
GIDDINGS       CLOUDY    83  74  73 S9        30.05S
$$

EAST TEXAS

CITY           SKY/WX    TMP DP  RH WIND       PRES   REMARKS
PARIS          PTSUNNY   84  68  58 S13       29.99S
CLARKSVILLE    NOT AVBL
TYLER          CLOUDY    86  73  65 S15       30.00F
LONGVIEW       PTSUNNY   87  74  64 S14       30.00F
PALESTINE      MOCLDY    87  75  68 S15       30.02S
NACOGDOCHES    PTSUNNY   86  75  70 S10       30.03S
$$

TEXAS HILL COUNTRY AND EDWARDS PLATEAU

CITY           SKY/WX    TMP DP  RH WIND       PRES   REMARKS
LLANO          NOT AVBL
HORSESHOE BAY  MOCLDY    82  74  75 CALM      30.02R
KERRVILLE      CLOUDY    79  74  86 SE6       30.04R
FREDERICKSBRG  NOT AVBL
ROCKSPRINGS    NOT AVBL
HONDO          CLOUDY    86  76  71 SE14      30.00F
UVALDE         CLOUDY    86  76  72 SE10G16   29.97F
DEL RIO        CLOUDY    82  76  81 E8        29.95F HAZE
$$

SOUTHEAST TEXAS

CITY           SKY/WX    TMP DP  RH WIND       PRES   REMARKS
COLLEGE STN    PTSUNNY   88  74  63 S15       30.02S
CALDWELL       NOT AVBL
CROCKETT       NOT AVBL
BRENHAM        PTSUNNY   89  74  60 S13       30.02S
HUNTSVILLE     MOSUNNY   91  72  53 S15G21    30.02F
CONROE         MOSUNNY   90  73  57 SE15G24   30.02F
HOUSTON BUSH   PTSUNNY   86  72  62 S18G25    30.02F
HOUSTON HOBBY  MOSUNNY   89  75  63 S13G20    30.02F
PERLAND        PTSUNNY   88  75  65 S13       30.04F
WHARTON        NOT AVBL
$$

THE UPPER TEXAS COAST

CITY           SKY/WX    TMP DP  RH WIND       PRES   REMARKS
ORANGE         MOCLDY    87  74  65 S14G20    30.09R
PORT ARTHUR    MOSUNNY   88  75  65 S16G23    30.05F
GALVESTON      PTSUNNY   85  80  85 S13       30.06S
ANGLETON       PTSUNNY   87  76  69 S18       30.03F
BAY CITY       NOT AVBL
$$

TEXAS COASTAL BEND, RIO GRANDE PLAINS DEEP SOUTH TEXAS

CITY           SKY/WX    TMP DP  RH WIND       PRES   REMARKS
VICTORIA       MOSUNNY   88  73  61 S21G26    30.00F
BEEVILLE       MOCLDY    90  79  70 S16G24    29.97F
ROCKPORT       PTSUNNY   88  77  69 SE18G24   29.98F
PORT ARANSAS   NOT AVBL
PORT LAVACA    MOCLDY    87  77  71 S14G22    30.01F
CORPUS CHRISTI PTSUNNY   88  78  72 SE16G23   29.97F
KINGSVILLE NAS PTSUNNY   90  82  77 SE15      29.95F
COTULLA        CLOUDY    92  74  55 S10       29.94F
LAREDO         CLOUDY    91  77  63 SE16      29.93  HAZE
BROWNSVILLE    PTSUNNY   89  77  67 S16G22    29.96F
PORT ISABEL    PTSUNNY   91  77  63 SE16      29.96F
HEBBRONVILLE   NOT AVBL
MCALLEN        CLOUDY    93  77  59 SE17G25   29.93F
WESLACO        NOT AVBL
FALFURRIAS     CLOUDY    93  73  53 SE16      29.93F
EDINBURG       NOT AVBL
$$



USA.gov is the U.S. government's official web portal to all federal, state and local government web resources and services.